Location: Newark
(30.1000°N, 109.4667°E)
Time: 01:03:37
(UTC+00:00)

Vanguard 1 Rocket - Pass Details

Date: 24 February 2020
Orbit: 650 x 4226 km, 34.3° (Epoch: 01 April)

Event Time Altitude Azimuth Distance (km) Brightness Sun altitude
Exits shadow 21:51:36 31° 299° (WNW) 1,257 7.6 -18.4°
Maximum altitude 21:53:47 64° 11° (N) 743 6.9 -18.0°
Drops below altitude 10° 21:58:07 10° 93° (E) 2,049 10.6 -17.0°
Sets 22:00:26 0° 97° (E) 3,039 11.9 -16.5°
